[[{"header":{"parameterUnit":"m.s-1","parameterCategory":1,"la1":30.2991,"la2":30.254,"lo1":-89.0895,"lo2":-89.0444,"dy":0.0017,"dx":0.0017,"nx":28,"ny":28,"refTime":"2025-02-05T03:00:00:Z","depth":0,"parameterNumber":2,"parameterNumberName":"U-component_of_WINDS"},"data":[0,0,0,0,0,0,0,0,0,0,0,0,0,0,0,0,0,0,0,0,0,0,0,0,0,0,0,0,0,0,0,0,0,0,0,0,0,0,0,0,0,0,0,0,0,0,0,0,0,0,0,0,0,0,0,0,0,0,-1.8194,-1.8194,0,-1.82,-1.82,-1.82,-1.8169,-1.8168,-1.8167,-1.8167,-1.8173,-1.8174,-1.8175,0,0,0,0,0,0,0,0,0,0,0,0,0,-1.8155,-1.8156,-1.8194,-1.8194,-1.8194,-1.82,-1.82,-1.8201,-1.8169,-1.8168,-1.8167,-1.8166,-1.8172,-1.8174,-1.8175,0,0,0,0,0,0,0,0,0,0,0,0,0,-1.8168,-1.8157,-1.8194,-1.818,-1.8178,-1.82,-1.82,-1.8201,-1.817,-1.8168,-1.8167,-1.8166,-1.8172,-1.8174,-1.8175,-1.8211,0,0,-1.818,-1.818,0,0,0,0,0,0,0,0,-1.8167,-1.8169,-1.8182,-1.8181,-1.8179,-1.8183,-1.8189,-1.8204,-1.817,-1.8173,-1.8167,-1.8165,-1.8177,-1.8178,-1.8182,-1.8212,-1.8212,-1.818,-1.8181,-1.8181,-1.8182,0,0,0,0,0,0,0,-1.8166,-1.8169,-1.8197,-1.8182,-1.818,-1.8173,-1.8173,-1.8192,-1.8183,-1.8173,-1.817,-1.8171,-1.8176,-1.8181,-1.8182,-1.8212,-1.818,-1.8181,-1.8182,-1.8183,-1.827,-1.8272,0,0,0,0,0,0,-1.8168,-1.8168,-1.8196,-1.8197,-1.817,-1.8174,-1.8175,-1.8183,-1.8182,-1.8181,-1.8173,-1.817,-1.8179,-1.818,-1.8182,-1.8224,-1.8181,-1.8183,-1.8184,-1.8269,-1.8271,-1.8272,0,0,0,0,0,0,-1.8167,-1.817,-1.8196,-1.8182,-1.8185,-1.8177,-1.8186,-1.8184,-1.8188,-1.8182,-1.818,-1.8179,-1.8178,-1.818,-1.8204,-1.8223,-1.8183,-1.8185,-1.8267,-1.8269,-1.8271,-1.8307,0,0,0,0,0,0,-1.8166,-1.817,-1.8184,-1.8183,-1.8186,-1.8218,-1.8187,-1.8185,-1.8191,-1.8188,-1.8188,-1.8187,-1.8177,-1.8202,-1.8206,-1.8225,-1.8186,-1.8265,-1.8268,-1.8271,-1.8304,-1.831,-1.8316,0,0,0,0,0,-1.8165,-1.8194,-1.8185,-1.8188,-1.8203,-1.8219,-1.8221,-1.8209,-1.8193,-1.8206,-1.8202,-1.8187,-1.8221,-1.8205,-1.8208,-1.8228,-1.8264,-1.8267,-1.8271,-1.8302,-1.8309,-1.8315,0,0,0,0,0,0,-1.8198,-1.8194,-1.8183,-1.8213,-1.8217,-1.8214,-1.8231,-1.8218,-1.8226,-1.8223,-1.8208,-1.8208,-1.8235,-1.8234,-1.8216,-1.8263,-1.824,-1.8244,-1.8262,-1.8269,-1.8275,-1.8273,-1.8187,0,0,0,0,0,-1.8209,-1.8223,-1.8218,-1.8245,-1.8248,-1.8239,-1.8246,-1.8237,-1.824,-1.8241,-1.8239,-1.8242,-1.8254,-1.8262,-1.8272,-1.8305,-1.8304,-1.832,-1.8326,-1.833,-1.8334,-1.835,-1.8357,-1.8283,-1.8283,-1.8283,0,0,-1.8232,-1.8231,-1.8241,-1.8252,-1.8254,-1.8268,-1.824,-1.8257,-1.8267,-1.8244,-1.8265,-1.8264,-1.8267,-1.8295,-1.8308,-1.8296,-1.8354,-1.8335,-1.8338,-1.8339,-1.8354,-1.8361,-1.8367,-1.8285,-1.8284,-1.8284,0,0,-1.828,-1.8282,-1.8303,-1.8306,-1.8308,-1.8302,-1.8308,-1.8307,-1.8305,-1.8327,-1.8309,-1.8321,-1.8342,-1.8344,-1.8348,-1.8397,-1.8382,-1.8401,-1.843,-1.8446,-1.8451,-1.8457,-1.8473,-1.8479,-1.8405,-1.8405,-1.8405,0,-1.8308,-1.8329,-1.8316,-1.8334,-1.8339,-1.8318,-1.834,-1.8343,-1.8349,-1.8353,-1.834,-1.8364,-1.8365,-1.8393,-1.8404,-1.8409,-1.8414,-1.84,-1.8452,-1.8457,-1.8461,-1.8476,-1.8483,-1.8407,-1.8407,-1.8406,-1.8406,0,-1.8362,-1.8377,-1.8394,-1.84,-1.8407,-1.8427,-1.8417,-1.8426,-1.8417,-1.8412,-1.8434,-1.8435,-1.8444,-1.845,-1.8441,-1.8477,-1.8469,-1.8454,-1.843,-1.847,-1.8484,-1.849,-1.841,-1.8409,-1.8409,-1.8408,0,0,-1.8431,-1.8429,-1.8436,-1.8438,-1.8439,-1.845,-1.8469,-1.8478,-1.8486,-1.8491,-1.8505,-1.8523,-1.8509,-1.8514,-1.8505,-1.8519,-1.8556,-1.8502,-1.8502,-1.8511,-1.8594,-1.8604,-1.8611,-1.8547,-1.8548,-1.8549,-1.8593,0,-1.8476,-1.8508,-1.8497,-1.8529,-1.8542,-1.8522,-1.8538,-1.8541,-1.8537,-1.8548,-1.8544,-1.8556,-1.8537,-1.854,-1.8553,-1.8549,-1.8572,-1.8546,-1.856,-1.856,-1.8558,-1.8618,-1.8629,-1.867,-1.8598,-1.8599,-1.86,0,-1.8534,-1.8541,-1.8574,-1.8572,-1.8577,-1.8592,-1.8599,-1.8609,-1.8612,-1.8608,-1.8613,-1.8601,-1.8619,-1.8596,-1.862,-1.8602,-1.8607,-1.8606,-1.8608,-1.8607,-1.8581,-1.8618,-1.8683,-1.8689,-1.8609,-1.8608,-1.8608,0,-1.8579,-1.8597,-1.8618,-1.8621,-1.862,-1.863,-1.8631,-1.8632,-1.8638,-1.8644,-1.8648,-1.8657,-1.8661,-1.8668,-1.8658,-1.8643,-1.8683,-1.866,-1.868,-1.868,-1.8688,-1.8687,-1.8753,-1.8694,-1.8694,-1.8694,-1.8694,0,-1.863,-1.8651,-1.8638,-1.8651,-1.8673,-1.8661,-1.8683,-1.8682,-1.8683,-1.8695,-1.8679,-1.8691,-1.8679,-1.8689,-1.8682,-1.8702,-1.8705,-1.8702,-1.8699,-1.8702,-1.8702,-1.8704,-1.8701,-1.8696,-1.8695,-1.8695,-1.8695,0,-1.8683,-1.8676,-1.8698,-1.8695,-1.8695,-1.8711,-1.8709,-1.8721,-1.8716,-1.8732,-1.8735,-1.8728,-1.8739,-1.8731,-1.8743,-1.8738,-1.8764,-1.8758,-1.8763,-1.8761,-1.878,-1.8778,-1.8849,-1.8857,-1.8794,-1.8795,-1.8795,0,-1.8716,-1.8731,-1.873,-1.8737,-1.8738,-1.875,-1.8755,-1.8744,-1.8751,-1.8755,-1.8766,-1.8776,-1.8783,-1.8803,-1.8799,-1.8807,-1.8801,-1.8825,-1.8802,-1.8804,-1.8799,-1.8798,-1.8799,-1.8829,-1.883,-1.883,-1.8831,0,-1.8774,-1.8769,-1.8778,-1.8786,-1.8793,-1.8799,-1.8803,-1.8809,-1.8798,-1.8806,-1.8818,-1.8824,-1.8835,-1.8845,-1.8852,-1.8852,-1.884,-1.8839,-1.8843,-1.8845,-1.8847,-1.8845,-1.8774,-1.8836,-1.8836,-1.8836,-1.8835,-1.8835,-1.8816,-1.8829,-1.8829,-1.884,-1.8842,-1.8846,-1.8856,-1.8853,-1.8863,-1.8871,-1.8864,-1.8877,-1.8879,-1.8887,-1.8889,-1.8899,-1.8889,-1.8896,-1.8898,-1.8899,-1.8901,-1.8847,-1.8901,-1.89,-1.89,-1.89,-1.89,0,-1.8872,-1.8872,-1.8881,-1.8887,-1.8895,-1.8883,-1.8887,-1.8894,-1.8906,-1.8909,-1.8917,-1.8929,-1.8939,-1.8936,-1.8944,-1.8953,-1.8947,-1.8955,-1.8953,-1.8953,-1.8911,-1.8905,-1.8959,-1.8959,-1.8959,-1.8959,-1.8959,-1.8959,-1.8902,-1.8921,-1.8917,-1.8937,-1.8936,-1.8949,-1.8952,-1.8956,-1.8958,-1.8972,-1.898,-1.8978,-1.8978,-1.8986,-1.8994,-1.8993,-1.8996,-1.9006,-1.9003,-1.8963,-1.8957,-1.8951,-1.8945,-1.9007,-1.9008,-1.9044,-1.9045,-1.9045]},{"header":{"parameterUnit":"m.s-1","parameterCategory":1,"la1":30.2991,"la2":30.254,"lo1":-89.0895,"lo2":-89.0444,"dy":0.0017,"dx":0.0017,"nx":28,"ny":28,"refTime":"2025-02-05T03:00:00:Z","depth":0,"parameterNumber":3,"parameterNumberName":"V-component_of_WINDS"},"data":[0,0,0,0,0,0,0,0,0,0,0,0,0,0,0,0,0,0,0,0,0,0,0,0,0,0,0,0,0,0,0,0,0,0,0,0,0,0,0,0,0,0,0,0,0,0,0,0,0,0,0,0,0,0,0,0,0,0,1.5225,1.5225,0,1.5269,1.5269,1.527,1.5291,1.5291,1.5291,1.5291,1.5335,1.5336,1.5337,0,0,0,0,0,0,0,0,0,0,0,0,0,1.5159,1.516,1.5225,1.5225,1.5226,1.5269,1.5269,1.527,1.5291,1.5291,1.5291,1.5291,1.5334,1.5336,1.5337,0,0,0,0,0,0,0,0,0,0,0,0,0,1.5194,1.516,1.5225,1.5242,1.5244,1.5269,1.5269,1.527,1.5291,1.5291,1.5291,1.5291,1.5334,1.5336,1.5337,1.5348,0,0,1.5343,1.5343,0,0,0,0,0,0,0,0,1.5192,1.5196,1.5239,1.5241,1.5243,1.5275,1.5262,1.5296,1.5291,1.5273,1.5291,1.5291,1.5315,1.5318,1.5326,1.535,1.5352,1.5343,1.5344,1.5345,1.5345,0,0,0,0,0,0,0,1.5189,1.5194,1.5242,1.5239,1.5242,1.5247,1.5252,1.5269,1.5293,1.5275,1.5276,1.5281,1.5316,1.5324,1.5327,1.5353,1.5343,1.5344,1.5345,1.5346,1.5389,1.5389,0,0,0,0,0,0,1.5184,1.5192,1.5241,1.5243,1.5217,1.5248,1.5254,1.5264,1.5293,1.5298,1.5281,1.5282,1.5321,1.5325,1.5329,1.5345,1.5345,1.5346,1.5347,1.5389,1.5389,1.5389,0,0,0,0,0,0,1.5183,1.5188,1.5239,1.5218,1.5225,1.5249,1.5261,1.5265,1.5274,1.5298,1.5303,1.5286,1.5322,1.5326,1.5344,1.5346,1.5347,1.5349,1.5389,1.5389,1.5389,1.5375,0,0,0,0,0,0,1.5181,1.5188,1.5192,1.5218,1.5226,1.5253,1.5261,1.5266,1.5277,1.5279,1.5303,1.5308,1.5322,1.5341,1.5345,1.5349,1.535,1.5389,1.5389,1.5389,1.5375,1.5375,1.5374,0,0,0,0,0,1.5178,1.5186,1.5192,1.5198,1.5232,1.5253,1.5258,1.5274,1.5277,1.5282,1.5298,1.5307,1.5345,1.5342,1.5348,1.5352,1.5389,1.5389,1.5389,1.5376,1.5375,1.5374,0,0,0,0,0,0,1.5158,1.5189,1.5197,1.5213,1.523,1.5257,1.5263,1.5273,1.5289,1.529,1.531,1.5315,1.5331,1.5343,1.5339,1.5364,1.5368,1.5369,1.5356,1.5355,1.5355,1.5352,1.5351,0,0,0,0,0,1.5156,1.5171,1.5197,1.5208,1.5217,1.5238,1.5248,1.526,1.5278,1.5286,1.5303,1.532,1.5336,1.5346,1.5362,1.5377,1.5383,1.5382,1.5382,1.5381,1.5382,1.5392,1.5392,1.539,1.539,1.539,0,0,1.5151,1.517,1.5178,1.5205,1.522,1.5235,1.5244,1.5259,1.5271,1.5288,1.5305,1.5318,1.5339,1.5356,1.5364,1.5366,1.5384,1.5381,1.5381,1.5382,1.5392,1.5392,1.5393,1.539,1.539,1.539,0,0,1.5149,1.5165,1.5177,1.5192,1.5215,1.5229,1.5232,1.5257,1.5267,1.5285,1.5298,1.5312,1.5339,1.5354,1.5365,1.537,1.5379,1.5375,1.5371,1.5381,1.5381,1.5381,1.5384,1.5385,1.5375,1.5375,1.5375,0,1.514,1.5163,1.5182,1.5197,1.5209,1.5225,1.5238,1.5252,1.5278,1.5286,1.5288,1.5324,1.5339,1.5359,1.5361,1.5369,1.5373,1.5372,1.538,1.538,1.538,1.5383,1.5384,1.5375,1.5375,1.5375,1.5375,0,1.5152,1.5167,1.5174,1.5201,1.5213,1.5227,1.5247,1.5258,1.5269,1.5283,1.5302,1.532,1.5341,1.5347,1.5357,1.5369,1.537,1.5376,1.538,1.538,1.5383,1.5384,1.5374,1.5374,1.5374,1.5374,0,0,1.5138,1.5176,1.5178,1.5191,1.5217,1.523,1.5244,1.5265,1.5275,1.5292,1.5305,1.5328,1.5334,1.5347,1.5359,1.5367,1.5371,1.5372,1.5372,1.5372,1.5387,1.5383,1.5384,1.5377,1.5378,1.5378,1.5386,0,1.5141,1.5169,1.5186,1.5207,1.5222,1.5239,1.5252,1.527,1.5283,1.5298,1.5314,1.533,1.5336,1.5344,1.5353,1.5369,1.5375,1.5368,1.539,1.5391,1.5385,1.5386,1.5381,1.5388,1.5387,1.5387,1.5387,0,1.5149,1.5167,1.5189,1.5216,1.5223,1.5234,1.5255,1.5269,1.529,1.53,1.5314,1.5327,1.5343,1.5345,1.5368,1.5364,1.5374,1.5383,1.5384,1.5387,1.5389,1.5389,1.539,1.5391,1.5389,1.5389,1.5389,0,1.5138,1.5168,1.5186,1.5196,1.5227,1.5235,1.5248,1.5269,1.528,1.5299,1.5307,1.5327,1.5338,1.5353,1.537,1.537,1.5392,1.5395,1.54,1.54,1.5404,1.5404,1.5407,1.541,1.541,1.5409,1.5409,0,1.514,1.5153,1.5182,1.5193,1.5208,1.5228,1.5243,1.5257,1.5276,1.529,1.5305,1.5318,1.534,1.5356,1.5369,1.5387,1.5391,1.54,1.5403,1.5399,1.5398,1.5406,1.5406,1.541,1.541,1.541,1.541,0,1.5131,1.5151,1.5171,1.5199,1.5206,1.5217,1.5241,1.5252,1.5267,1.5284,1.529,1.5313,1.5332,1.5351,1.5377,1.5386,1.5404,1.5408,1.5397,1.5399,1.5403,1.5403,1.5412,1.5415,1.5414,1.5414,1.5414,0,1.5131,1.5142,1.5172,1.5182,1.5196,1.5213,1.5225,1.5245,1.5258,1.5283,1.5291,1.5312,1.5329,1.5359,1.5378,1.5398,1.5404,1.5406,1.5407,1.5402,1.5405,1.5404,1.5406,1.5405,1.5405,1.5405,1.5405,0,1.513,1.514,1.5158,1.5179,1.5194,1.5212,1.523,1.5238,1.5262,1.5275,1.5295,1.5309,1.5336,1.5356,1.5378,1.5392,1.5402,1.5404,1.5407,1.5403,1.5396,1.5401,1.5396,1.5404,1.5404,1.5404,1.5404,1.5404,1.5126,1.5137,1.516,1.518,1.5196,1.5213,1.5225,1.5242,1.526,1.5284,1.5294,1.5315,1.5336,1.5368,1.5381,1.5397,1.54,1.5403,1.5404,1.5405,1.5404,1.5393,1.5401,1.5401,1.5401,1.5401,1.5401,0,1.5127,1.5143,1.5161,1.5186,1.5202,1.5211,1.5232,1.5245,1.5263,1.5282,1.53,1.5323,1.5343,1.5364,1.5386,1.5395,1.54,1.54,1.54,1.5403,1.54,1.5396,1.5395,1.5395,1.5395,1.5395,1.5395,1.5395,1.5129,1.5148,1.5161,1.5188,1.5204,1.5225,1.5236,1.5252,1.5268,1.5294,1.5311,1.5325,1.5345,1.5368,1.5387,1.5393,1.54,1.5398,1.5405,1.5402,1.5403,1.5403,1.54,1.54,1.54,1.5407,1.5407,1.5407]}]]